TimeCDT,TemperatureF,Dew PointF,Humidity,Sea Level PressureIn,VisibilityMPH,Wind Direction,Wind SpeedMPH,Gust SpeedMPH,PrecipitationIn,Events,Conditions,WindDirDegrees,DateUTC
12:15 AM,33.8,17.6,52,30.03,10.0,ENE,10.4,-,N/A,,Mostly Cloudy,60,2013-04-11 05:15:00
12:34 AM,32.0,17.6,55,30.03,10.0,ENE,8.1,-,N/A,,Overcast,60,2013-04-11 05:34:00
12:55 AM,32.0,17.6,55,30.02,10.0,ENE,6.9,-,N/A,,Overcast,60,2013-04-11 05:55:00
1:15 AM,32.0,17.6,55,30.02,10.0,ENE,6.9,-,N/A,,Overcast,60,2013-04-11 06:15:00
1:34 AM,30.2,17.6,60,30.02,10.0,NE,5.8,-,N/A,,Overcast,50,2013-04-11 06:34:00
1:55 AM,30.2,17.6,60,30.03,10.0,Calm,Calm,-,N/A,,Overcast,0,2013-04-11 06:55:00
2:15 AM,30.2,17.6,60,30.02,10.0,NE,3.5,-,N/A,,Overcast,50,2013-04-11 07:15:00
2:34 AM,30.2,17.6,60,30.02,10.0,NE,6.9,-,N/A,,Overcast,50,2013-04-11 07:34:00
2:55 AM,30.2,17.6,60,30.00,10.0,NE,8.1,-,N/A,,Overcast,50,2013-04-11 07:55:00
3:15 AM,30.2,17.6,60,30.00,10.0,ENE,8.1,-,N/A,,Overcast,70,2013-04-11 08:15:00
3:34 AM,30.2,17.6,60,29.99,10.0,East,10.4,-,N/A,,Overcast,80,2013-04-11 08:34:00
3:55 AM,30.2,15.8,55,29.97,10.0,ENE,4.6,9.2,N/A,,Overcast,60,2013-04-11 08:55:00
4:15 AM,30.2,14.0,51,29.97,10.0,ENE,8.1,-,N/A,,Overcast,60,2013-04-11 09:15:00
4:34 AM,30.2,17.6,60,29.97,10.0,ENE,6.9,-,N/A,,Overcast,70,2013-04-11 09:34:00
4:55 AM,30.2,17.6,60,29.95,10.0,ENE,8.1,-,N/A,,Overcast,70,2013-04-11 09:55:00
5:15 AM,30.2,15.8,55,29.95,10.0,ENE,12.7,21.9,N/A,,Overcast,70,2013-04-11 10:15:00
5:34 AM,28.4,15.8,59,29.94,10.0,East,15.0,20.7,N/A,,Overcast,80,2013-04-11 10:34:00
5:55 AM,28.4,15.8,59,29.93,10.0,East,13.8,19.6,N/A,,Overcast,80,2013-04-11 10:55:00
6:15 AM,28.4,15.8,59,29.93,10.0,ENE,12.7,16.1,N/A,,Overcast,70,2013-04-11 11:15:00
6:35 AM,28.4,15.8,59,29.92,10.0,East,13.8,19.6,N/A,,Overcast,80,2013-04-11 11:35:00
6:55 AM,28.4,15.8,59,29.92,10.0,East,12.7,18.4,N/A,,Overcast,80,2013-04-11 11:55:00
7:15 AM,28.4,15.8,59,29.91,10.0,ENE,13.8,19.6,N/A,,Overcast,70,2013-04-11 12:15:00
7:34 AM,28.4,15.8,59,29.91,10.0,ENE,13.8,19.6,N/A,,Overcast,70,2013-04-11 12:34:00
7:41 AM,28.4,15.8,59,29.90,10.0,ENE,13.8,-,N/A,,Overcast,60,2013-04-11 12:41:00
8:03 AM,28.4,15.8,59,29.91,10.0,ENE,13.8,19.6,N/A,,Mostly Cloudy,70,2013-04-11 13:03:00
8:15 AM,28.4,15.8,59,29.90,10.0,ENE,11.5,-,N/A,,Scattered Clouds,70,2013-04-11 13:15:00
8:35 AM,28.4,15.8,59,29.90,10.0,ENE,10.4,17.3,N/A,,Mostly Cloudy,60,2013-04-11 13:35:00
8:55 AM,28.4,15.8,59,29.90,10.0,ENE,10.4,17.3,N/A,,Mostly Cloudy,70,2013-04-11 13:55:00
9:15 AM,28.4,15.8,59,29.90,10.0,ENE,12.7,-,N/A,,Mostly Cloudy,70,2013-04-11 14:15:00
9:35 AM,28.4,15.8,59,29.90,10.0,ENE,12.7,18.4,N/A,,Mostly Cloudy,70,2013-04-11 14:35:00
9:55 AM,28.4,15.8,59,29.91,10.0,ENE,12.7,18.4,N/A,,Scattered Clouds,70,2013-04-11 14:55:00
10:14 AM,28.4,15.8,59,29.91,10.0,ENE,13.8,19.6,N/A,,Scattered Clouds,70,2013-04-11 15:14:00
10:35 AM,28.4,15.8,59,29.90,10.0,ENE,10.4,17.3,N/A,,Scattered Clouds,60,2013-04-11 15:35:00
10:55 AM,28.4,15.8,59,29.91,10.0,ENE,15.0,-,N/A,,Scattered Clouds,70,2013-04-11 15:55:00
11:14 AM,28.4,15.8,59,29.91,10.0,ENE,11.5,17.3,N/A,,Scattered Clouds,60,2013-04-11 16:14:00
11:35 AM,28.4,15.8,59,29.91,10.0,ENE,11.5,17.3,N/A,,Scattered Clouds,60,2013-04-11 16:35:00
12:14 PM,28.4,17.6,64,29.92,4.0,ENE,12.7,17.3,N/A,Snow,Light Snow,60,2013-04-11 17:14:00
12:35 PM,28.4,17.6,64,29.92,1.8,ENE,13.8,20.7,N/A,Snow,Light Snow,60,2013-04-11 17:35:00
12:55 PM,26.6,21.2,80,29.91,0.2,ENE,13.8,18.4,N/A,Snow,Snow,70,2013-04-11 17:55:00
1:14 PM,26.6,21.2,80,29.91,0.2,ENE,13.8,24.2,N/A,Snow,Snow,60,2013-04-11 18:14:00
1:35 PM,28.4,23.0,80,29.90,0.5,NE,13.8,19.6,0.01,Snow,Light Snow,50,2013-04-11 18:35:00
1:55 PM,28.4,24.8,86,29.90,0.8,NE,13.8,19.6,0.01,Snow,Light Snow,40,2013-04-11 18:55:00
2:14 PM,28.4,23.0,80,29.89,2.5,NE,13.8,20.7,N/A,Snow,Light Snow,50,2013-04-11 19:14:00
2:35 PM,28.4,24.8,86,29.89,4.0,NE,11.5,-,N/A,,Haze,50,2013-04-11 19:35:00
2:55 PM,30.2,24.8,80,29.89,4.0,NE,11.5,-,N/A,,Overcast,40,2013-04-11 19:55:00
3:14 PM,28.4,24.8,86,29.89,3.0,NE,12.7,18.4,N/A,,Overcast,50,2013-04-11 20:14:00
3:35 PM,28.4,24.8,86,29.88,3.0,ENE,15.0,23.0,N/A,,Haze,60,2013-04-11 20:35:00
3:55 PM,28.4,24.8,86,29.88,3.0,NE,13.8,21.9,N/A,,Overcast,50,2013-04-11 20:55:00
4:15 PM,28.4,24.8,86,29.88,7.0,NE,11.5,20.7,N/A,,Overcast,50,2013-04-11 21:15:00
4:35 PM,28.4,24.8,86,29.88,7.0,NE,12.7,19.6,N/A,,Overcast,50,2013-04-11 21:35:00
4:55 PM,26.6,23.0,86,29.88,4.0,NE,11.5,-,N/A,,Overcast,40,2013-04-11 21:55:00
5:15 PM,26.6,23.0,86,29.88,7.0,NE,10.4,16.1,N/A,,Overcast,50,2013-04-11 22:15:00
5:35 PM,26.6,24.8,93,29.88,7.0,NE,11.5,18.4,N/A,,Overcast,50,2013-04-11 22:35:00
5:54 PM,26.6,23.0,86,29.88,3.0,ENE,11.5,18.4,N/A,,Overcast,60,2013-04-11 22:54:00
6:15 PM,26.6,23.0,86,29.88,7.0,ENE,12.7,18.4,N/A,,Overcast,60,2013-04-11 23:15:00
6:35 PM,26.6,23.0,86,29.88,10.0,ENE,10.4,18.4,N/A,Snow,Light Snow,60,2013-04-11 23:35:00
6:54 PM,26.6,23.0,86,29.89,10.0,ENE,9.2,16.1,N/A,,Overcast,60,2013-04-11 23:54:00
7:15 PM,26.6,23.0,86,29.88,10.0,NE,10.4,16.1,N/A,,Overcast,50,2013-04-12 00:15:00
7:35 PM,26.6,23.0,86,29.88,7.0,NE,12.7,19.6,N/A,,Overcast,50,2013-04-12 00:35:00
7:54 PM,26.6,21.2,80,29.88,10.0,NE,10.4,16.1,N/A,,Overcast,50,2013-04-12 00:54:00
8:15 PM,26.6,21.2,80,29.88,10.0,ENE,13.8,-,N/A,,Overcast,60,2013-04-12 01:15:00
8:35 PM,24.8,21.2,86,29.87,7.0,NE,12.7,20.7,N/A,Snow,Light Snow,50,2013-04-12 01:35:00
8:54 PM,24.8,21.2,86,29.87,4.0,ENE,12.7,19.6,N/A,Snow,Light Snow,60,2013-04-12 01:54:00
9:15 PM,24.8,21.2,86,29.87,5.0,NE,11.5,-,N/A,Snow,Light Snow,50,2013-04-12 02:15:00
9:35 PM,24.8,21.2,86,29.87,5.0,NE,9.2,-,N/A,Snow,Light Snow,40,2013-04-12 02:35:00
9:54 PM,24.8,21.2,86,29.87,5.0,NE,9.2,-,N/A,Snow,Light Snow,50,2013-04-12 02:54:00
10:15 PM,24.8,21.2,86,29.87,5.0,NE,9.2,-,0.01,Snow,Light Snow,50,2013-04-12 03:15:00
10:35 PM,24.8,21.2,86,29.87,5.0,ENE,12.7,18.4,0.01,Snow,Light Snow,60,2013-04-12 03:35:00
10:54 PM,24.8,21.2,86,29.87,4.0,ENE,10.4,16.1,0.01,Snow,Light Snow,60,2013-04-12 03:54:00
11:15 PM,24.8,21.2,86,29.87,2.5,ENE,10.4,17.3,N/A,Snow,Light Snow,60,2013-04-12 04:15:00
11:35 PM,24.8,21.2,86,29.86,3.0,ENE,10.4,-,N/A,Snow,Light Snow,60,2013-04-12 04:35:00
11:55 PM,24.8,21.2,86,29.87,3.0,ENE,10.4,-,N/A,Snow,Light Snow,60,2013-04-12 04:55:00